This demonstration page uses our WeatherBlox Daily Observations layout. Learn more.

Left ArrowRight Arrow

Hourly Observations for November 1, 2020

Temp ( °F °C ) Dew Point ( °F °C ) Humidity (%) Winds ( mph kmh ) Pressure ( in mb ) Visibility ( mi km ) Precip ( " mm )
12:56 am 00:56 Clear 40 4.4 25 -3.9 55 55 NW 9 15 30.40 1029 10 16 0.00 0.00
1:56 am 01:56 Clear 38 3.3 24 -4.4 57 57 NNW 9 15 30.41 1030 10 16 0.00 0.00
1:56 am 01:56 Clear 34 1.1 22 -5.6 61 61 NNW 5 7 30.44 1031 10 16 0.00 0.00
2:56 am 02:56 Clear 30 -1.1 21 -6.1 69 69 WNW 9 15 30.48 1032 10 16 0.00 0.00
3:56 am 03:56 Clear 31 -0.6 21 -6.1 67 67 WNW 7 11 30.49 1033 10 16 0.00 0.00
4:56 am 04:56 Clear 31 -0.6 21 -6.1 67 67 NNW 7 11 30.51 1033 10 16 0.00 0.00
5:56 am 05:56 Clear 27 -2.8 19 -7.2 72 72 WNW 5 7 30.51 1033 10 16 0.00 0.00
6:56 am 06:56 Clear 26 -3.3 19 -7.2 75 75 NW 7 11 30.54 1034 10 16 0.00 0.00
7:56 am 07:56 Sunny 29 -1.7 20 -6.7 69 69 WNW 6 9 30.56 1035 10 16 0.00 0.00
8:56 am 08:56 Sunny 35 1.7 21 -6.1 57 57 N 6 9 30.58 1036 10 16 0.00 0.00
9:56 am 09:56 Sunny 42 5.6 21 -6.1 43 43 N 5 7 30.59 1036 10 16 0.00 0.00
10:56 am 10:56 Sunny 43 6.1 19 -7.2 38 38 Calm 30.59 1036 10 16 0.00 0.00
11:56 am 11:56 Sunny 46 7.8 19 -7.2 34 34 VRB 5 7 30.58 1036 10 16 0.00 0.00
12:56 pm 12:56 Sunny 49 9.4 19 -7.2 31 31 VRB 6 9 30.55 1034 10 16 0.00 0.00
1:56 pm 13:56 Sunny 52 11.1 19 -7.2 27 27 S 8 13 30.51 1033 10 16 0.00 0.00
2:56 pm 14:56 Sunny 53 11.7 18 -7.8 25 25 SE 9 15 30.50 1033 10 16 0.00 0.00
3:56 pm 15:56 Sunny 53 11.7 17 -8.3 24 24 S 10 17 30.50 1033 10 16 0.00 0.00
4:56 pm 16:56 Sunny 51 10.6 18 -7.8 27 27 S 9 15 30.49 1033 10 16 0.00 0.00
5:56 pm 17:56 Clear 43 6.1 18 -7.8 37 37 SSE 8 13 30.50 1033 10 16 0.00 0.00
6:56 pm 18:56 Clear 40 4.4 18 -7.8 41 41 SSE 9 15 30.50 1033 10 16 0.00 0.00
7:56 pm 19:56 Clear 37 2.8 18 -7.8 46 46 SSE 7 11 30.50 1033 10 16 0.00 0.00
8:56 pm 20:56 Clear 36 2.2 19 -7.2 50 50 S 9 15 30.47 1032 10 16 0.00 0.00
9:56 pm 21:56 Clear 36 2.2 20 -6.7 52 52 S 10 17 30.46 1032 10 16 0.00 0.00
10:56 pm 22:56 Clear 36 2.2 19 -7.2 50 50 S 10 17 30.45 1031 10 16 0.00 0.00
11:56 pm 23:56 Clear 33 0.6 19 -7.2 56 56 S 10 17 30.43 1031 10 16 0.00 0.00

Powered by AerisWeather